Location: Baix
(44.7118°N, 4.7648°E)
Time: 02:56:49
(UTC+00:00)

USA 229 - Pass Details

Date: 07 August 2020
Orbit: 973 x 1239 km, 63.4° (Epoch: 25 September)

Event Time Altitude Azimuth Distance (km) Brightness Sun altitude
Exits shadow 02:48:45 23° 208° (SSW) 1,994 4.6 -16.3°
Maximum altitude 02:53:04 79° 124° (SE) 1,043 3.6 -15.7°
Drops below altitude 10° 02:59:53 10° 39° (NE) 2,907 7.4 -14.8°
Sets 03:02:37 0° 39° (NE) 3,906 8.5 -14.5°
